C/2018 B1 ( Lemmon )

Japanese version
Home page
Updated on November 20, 2018

---------------------------------------------------------------------

* Profile

Discovery Date January 25, 2018
Magnitude 19.4 mag
Discoverer A. D. Grauer (Mount Lemmon Survey)

* Pictures

* Orbital Elements

Epoch 2018 Mar. 23.0 TT = JDT 2458200.5
T 2018 Mar. 30.57946 TT                                 MPCW
q   5.1168989            (2000.0)            P               Q
z  -0.0005844      Peri.   68.35538     +0.39407451     +0.89228811
 +/-0.0000027      Node   133.15848     +0.69129583     -0.44571472
e   1.0029904      Incl.  162.42300     +0.60565283     -0.07183533
From 131 observations 2017 Jan. 16-2018 Oct. 11, mean residual 0".5.

* Magnitudes Graph

        m1 = 1.0 + 5 log d + 20.0 log r(t - 100)

---------------------------------------------------------------------

The orbital elements are published on M.P.E.C. 2018-U70.
The magnitudes graphs are made with Comet for Windows.

---------------------------------------------------------------------

Copyright(C) Seiichi Yoshida (comet@aerith.net). All rights reserved.